ISPRA Istituto Superiore per la Protezione e la Ricerca Ambientale
R.M.N. Rete Mareografica Nazionale
LA SPEZIA
DIREZIONE E VELOCIT� VENTO
DATA;ORA;DIR �N;VEL m/s
20130316;00:00;21;1,2
20130316;00:10;19;0,9
20130316;00:20;315;1,4
20130316;00:30;346;1,7
20130316;00:40;356;1,9
20130316;00:50;14;2,4
20130316;01:00;31;2,1
20130316;01:10;47;1,9
20130316;01:20;349;1,4
20130316;01:30;348;2,0
20130316;01:40;2;2,1
20130316;01:50;34;2,4
20130316;02:00;7;2,1
20130316;02:10;28;1,3
20130316;02:20;359;1,2
20130316;02:30;348;1,5
20130316;02:40;31;1,3
20130316;02:50;3;1,2
20130316;03:00;9;1,8
20130316;03:10;9;1,8
20130316;03:20;17;1,1
20130316;03:30;22;1,6
20130316;03:40;13;1,7
20130316;03:50;26;2,0
20130316;04:00;5;1,6
20130316;04:10;26;1,4
20130316;04:20;6;1,5
20130316;04:30;354;1,4
20130316;04:40;350;1,1
20130316;04:50;21;2,1
20130316;05:00;9;1,9
20130316;05:10;358;1,4
20130316;05:20;12;1,6
20130316;05:30;14;2,0
20130316;05:40;18;1,7
20130316;05:50;15;2,0
20130316;06:00;29;2,3
20130316;06:10;25;2,1
20130316;06:20;29;1,9
20130316;06:30;37;1,3
20130316;06:40;30;1,9
20130316;06:50;360;1,6
20130316;07:00;3;1,3
20130316;07:10;23;1,5
20130316;07:20;23;1,5
20130316;07:30;31;1,4
20130316;07:40;29;1,2
20130316;07:50;32;1,5
20130316;08:00;35;1,9
20130316;08:10;21;1,5
20130316;08:20;346;1,1
20130316;08:30;298;1,2
20130316;08:40;300;1,6
20130316;08:50;279;1,3
20130316;09:00;303;0,5
20130316;09:10;208;1,4
20130316;09:20;186;1,6
20130316;09:30;170;2,6
20130316;09:40;163;3,4
20130316;09:50;156;3,3
20130316;10:00;152;3,7
20130316;10:10;152;3,8
20130316;10:20;138;3,6
20130316;10:30;148;4,1
20130316;10:40;149;4,1
20130316;10:50;156;4,5
20130316;11:00;152;4,1
20130316;11:10;141;3,2
20130316;11:20;146;3,2
20130316;11:30;150;3,2
20130316;11:40;165;3,6
20130316;11:50;150;3,2
20130316;12:00;151;3,1
20130316;12:10;160;3,8
20130316;12:20;153;3,9
20130316;12:30;157;4,0
20130316;12:40;158;4,2
20130316;12:50;150;3,8
20130316;13:00;152;4,1
20130316;13:10;157;4,3
20130316;13:20;158;4,4
20130316;13:30;161;4,6
20130316;13:40;158;4,4
20130316;13:50;162;4,3
20130316;14:00;152;4,1
20130316;14:10;155;4,2
20130316;14:20;160;4,5
20130316;14:30;169;3,8
20130316;14:40;171;3,9
20130316;14:50;180;3,8
20130316;15:00;171;3,8
20130316;15:10;170;3,7
20130316;15:20;176;3,3
20130316;15:30;179;3,7
20130316;15:40;160;3,2
20130316;15:50;153;3,4
20130316;16:00;155;3,2
20130316;16:10;154;3,3
20130316;16:20;141;3,3
20130316;16:30;146;3,0
20130316;16:40;147;2,9
20130316;16:50;147;2,9
20130316;17:00;140;2,6
20130316;17:10;149;2,5
20130316;17:20;124;2,0
20130316;17:30;108;1,4
20130316;17:40;96;1,6
20130316;17:50;92;1,7
20130316;18:00;99;1,3
20130316;18:10;101;1,1
20130316;18:20;108;0,8
20130316;18:30;182;0,5
20130316;18:40;27;1,3
20130316;18:50;0;1,0
20130316;19:00;325;1,6
20130316;19:10;15;1,4
20130316;19:20;355;1,3
20130316;19:30;0;1,2
20130316;19:40;10;1,4
20130316;19:50;14;1,0
20130316;20:00;331;0,9
20130316;20:10;352;1,6
20130316;20:20;9;1,5
20130316;20:30;18;1,3
20130316;20:40;44;2,2
20130316;20:50;40;1,3
20130316;21:00;347;1,6
20130316;21:10;2;1,0
20130316;21:20;342;1,5
20130316;21:30;28;1,5
20130316;21:40;25;1,1
20130316;21:50;20;2,1
20130316;22:00;26;1,5
20130316;22:10;22;1,0
20130316;22:20;29;1,4
20130316;22:30;33;1,1
20130316;22:40;24;1,1
20130316;22:50;28;1,7
20130316;23:00;39;1,5
20130316;23:10;51;1,5
20130316;23:20;43;1,5
20130316;23:30;40;1,2
20130316;23:40;26;1,5
20130316;23:50;37;1,6
20130317;00:00;47;1,0
20130317;00:10;33;1,0
20130317;00:20;24;1,3
20130317;00:30;30;1,1
20130317;00:40;360;0,9
20130317;00:50;348;0,8
20130317;01:00;4;1,1
20130317;01:10;344;1,3
20130317;01:20;355;1,2
20130317;01:30;13;1,2
20130317;01:40;42;1,3
20130317;01:50;38;1,5
20130317;02:00;29;0,9
20130317;02:10;302;0,9
20130317;02:20;13;1,1
20130317;02:30;47;1,2
20130317;02:40;34;1,8
20130317;02:50;16;2,4
20130317;03:00;333;1,1
20130317;03:10;349;2,0
20130317;03:20;357;2,1
20130317;03:30;333;1,2
20130317;03:40;36;1,4
20130317;03:50;51;1,2
20130317;04:00;319;0,8
20130317;04:10;343;1,5
20130317;04:20;4;1,2
20130317;04:30;12;1,2
20130317;04:40;342;1,8
20130317;04:50;354;1,9
20130317;05:00;0;1,4
20130317;05:10;335;2,3
20130317;05:20;342;2,6
20130317;05:30;342;2,6
20130317;05:40;354;2,2
20130317;05:50;348;1,9
20130317;06:00;0;1,4
20130317;06:10;36;2,1
20130317;06:20;51;2,3
20130317;06:30;41;1,8
20130317;06:40;84;1,2
20130317;06:50;62;1,2
20130317;07:00;309;1,4
20130317;07:10;330;1,2
20130317;07:20;111;2,2
20130317;07:30;73;2,1
20130317;07:40;61;2,1
20130317;07:50;59;2,4
20130317;08:00;74;2,1
20130317;08:10;86;2,6
20130317;08:20;68;2,2
20130317;08:30;102;3,5
20130317;08:40;101;3,1
20130317;08:50;101;3,1
20130317;09:00;106;5,4
20130317;09:10;104;5,8
20130317;09:20;111;6,2
20130317;09:30;114;5,0
20130317;09:40;109;4,7
20130317;09:50;115;4,7
20130317;10:00;104;4,4
20130317;10:10;102;3,8
20130317;10:20;106;4,1
20130317;10:30;106;4,7
20130317;10:40;113;4,7
20130317;10:50;113;5,8
20130317;11:00;100;5,2
20130317;11:10;88;5,0
20130317;11:20;95;3,9
20130317;11:30;95;3,9
20130317;11:40;77;3,3
20130317;11:50;70;3,9
20130317;12:00;66;3,2
20130317;12:10;56;3,0
20130317;12:20;61;1,7
20130317;12:30;334;1,1
20130317;12:40;322;1,9
20130317;12:50;348;1,6
20130317;13:00;1;1,1
20130317;13:10;34;0,8
20130317;13:20;29;1,3
20130317;13:30;48;2,1
20130317;13:40;57;2,1
20130317;13:50;105;2,7
20130317;14:00;62;1,7
20130317;14:10;101;2,4
20130317;14:20;102;2,6
20130317;14:30;82;2,0
20130317;14:40;47;1,1
20130317;14:50;21;1,4
20130317;15:00;38;1,8
20130317;15:10;33;2,2
20130317;15:20;50;2,0
20130317;15:30;51;1,9
20130317;15:40;40;2,5
20130317;15:50;31;2,8
20130317;16:00;34;3,4
20130317;16:10;31;3,0
20130317;16:20;18;1,2
20130317;16:30;318;0,9
20130317;16:40;356;1,2
20130317;16:50;358;1,0
20130317;17:00;358;2,0
20130317;17:10;1;2,5
20130317;17:20;348;2,0
20130317;17:30;340;1,7
20130317;17:40;355;1,5
20130317;17:50;39;1,8
20130317;18:00;38;1,5
20130317;18:10;15;2,0
20130317;18:20;38;1,7
20130317;18:30;29;1,1
20130317;18:40;26;0,6
20130317;18:50;51;0,5
20130317;19:00;44;1,8
20130317;19:10;350;1,1
20130317;19:20;25;0,8
20130317;19:30;30;1,4
20130317;19:40;27;3,8
20130317;19:50;22;2,3
20130317;20:00;25;1,7
20130317;20:10;57;1,3
20130317;20:20;324;1,5
20130317;20:30;37;1,7
20130317;20:40;357;1,2
20130317;20:50;297;3,2
20130317;21:00;329;3,1
20130317;21:10;344;1,9
20130317;21:20;345;2,7
20130317;21:30;332;2,2
20130317;21:40;6;1,8
20130317;21:50;25;1,5
20130317;22:00;37;1,6
20130317;22:10;26;1,9
20130317;22:20;3;1,8
20130317;22:30;360;2,8
20130317;22:40;14;2,7
20130317;22:50;348;1,8
20130317;23:00;313;3,1
20130317;23:10;332;3,3
20130317;23:20;326;2,4
20130317;23:30;339;2,9
20130317;23:40;307;3,4
20130317;23:50;333;2,6
20130318;00:00;298;3,4
20130318;00:10;332;2,7
20130318;00:20;11;2,1
20130318;00:30;332;1,4
20130318;00:40;9;1,0
20130318;00:50;65;0,9
20130318;01:00;48;1,0
20130318;01:10;55;1,7
20130318;01:20;32;1,5
20130318;01:30;43;1,9
20130318;01:40;61;1,6
20130318;01:50;56;1,4
20130318;02:00;46;1,6
20130318;02:10;34;1,3
20130318;02:20;8;1,2
20130318;02:30;350;1,4
20130318;02:40;355;1,6
20130318;02:50;20;2,1
20130318;03:00;321;5,4
20130318;03:10;32;2,7
20130318;03:20;2;3,0
20130318;03:30;348;1,1
20130318;03:40;22;3,0
20130318;03:50;20;2,5
20130318;04:00;26;2,1
20130318;04:10;23;1,5
20130318;04:20;64;0,7
20130318;04:30;341;1,0
20130318;04:40;331;1,3
20130318;04:50;306;2,3
20130318;05:00;306;2,3
20130318;05:10;289;2,6
20130318;05:20;275;3,3
20130318;05:30;84;2,8
20130318;05:40;206;5,1
20130318;05:50;291;2,9
20130318;06:00;314;2,9
20130318;06:10;319;2,2
20130318;06:20;356;2,5
20130318;06:30;353;3,0
20130318;06:40;330;2,2
20130318;06:50;288;3,0
20130318;07:00;327;2,3
20130318;07:10;343;1,6
20130318;07:20;335;1,7
20130318;07:30;324;1,9
20130318;07:40;328;1,3
20130318;07:50;336;0,8
20130318;08:00;319;1,2
20130318;08:10;321;2,0
20130318;08:20;302;4,0
20130318;08:30;331;2,6
20130318;08:40;14;1,5
20130318;08:50;14;1,5
20130318;09:00;347;0,7
20130318;09:10;51;0,9
20130318;09:20;31;0,8
20130318;09:30;328;1,4
20130318;09:40;15;1,5
20130318;09:50;46;1,5
20130318;10:00;59;1,8
20130318;10:10;64;1,8
20130318;10:20;107;0,9
20130318;10:30;258;2,3
20130318;10:40;277;2,5
20130318;10:50;260;0,6
20130318;11:00;227;0,6
20130318;11:10;183;1,4
20130318;11:20;154;2,9
20130318;11:30;148;3,8
20130318;11:40;138;3,4
20130318;11:50;147;3,2
20130318;12:00;226;4,5
20130318;12:10;234;4,2
20130318;12:20;218;4,9
20130318;12:30;185;4,0
20130318;12:40;179;4,4
20130318;12:50;166;4,3
20130318;13:00;183;3,6
20130318;13:10;173;4,8
20130318;13:20;163;5,2
20130318;13:30;161;6,0
20130318;13:40;160;6,4
20130318;13:50;162;7,0
20130318;14:00;183;6,6
20130318;14:10;190;5,7
20130318;14:20;205;4,3
20130318;14:30;206;2,9
20130318;14:40;223;3,1
20130318;14:50;220;3,5
20130318;15:00;220;4,0
20130318;15:10;230;3,9
20130318;15:20;242;4,8
20130318;15:30;232;4,0
20130318;15:40;228;3,1
20130318;15:50;224;3,0
20130318;16:00;201;2,7
20130318;16:10;177;3,1
20130318;16:20;187;3,8
20130318;16:30;188;3,4
20130318;16:40;164;4,4
20130318;16:50;150;4,4
20130318;17:00;133;4,5
20130318;17:10;136;4,7
20130318;17:20;144;4,9
20130318;17:30;154;5,9
20130318;17:40;136;5,7
20130318;17:50;120;4,8
20130318;18:00;143;6,8
20130318;18:10;213;8,0
20130318;18:20;221;8,5
20130318;18:30;217;6,1
20130318;18:40;242;7,9
20130318;18:50;241;5,9
20130318;19:00;247;7,1
20130318;19:10;249;9,5
20130318;19:20;247;13,0
20130318;19:30;244;12,4
20130318;19:40;240;13,3
20130318;19:50;243;12,2
20130318;20:00;242;12,1
20130318;20:10;246;11,2
20130318;20:20;245;11,5
20130318;20:30;252;8,7
20130318;20:40;258;9,4
20130318;20:50;258;8,9
20130318;21:00;254;9,4
20130318;21:10;251;11,6
20130318;21:20;243;12,1
20130318;21:30;244;12,2
20130318;21:40;249;12,4
20130318;21:50;245;12,2
20130318;22:00;248;12,3
20130318;22:10;251;13,2
20130318;22:20;253;12,4
20130318;22:30;251;12,2
20130318;22:40;249;12,0
20130318;22:50;253;12,3
20130318;23:00;256;10,9
20130318;23:10;255;9,4
20130318;23:20;256;11,9
20130318;23:30;258;11,4
20130318;23:40;255;12,6
20130318;23:50;253;13,2
20130319;00:00;256;12,2
20130319;00:10;254;10,6
20130319;00:20;257;11,1
20130319;00:30;257;9,7
20130319;00:40;271;9,3
20130319;00:50;265;8,1
20130319;01:00;276;8,8
20130319;01:10;266;9,9
20130319;01:20;265;9,9
20130319;01:30;266;10,0
20130319;01:40;268;10,3
20130319;01:50;261;10,5
20130319;02:00;256;11,2
20130319;02:10;256;11,6
20130319;02:20;251;10,9
20130319;02:30;242;9,9
20130319;02:40;248;9,7
20130319;02:50;254;8,2
20130319;03:00;253;7,2
20130319;03:10;280;6,5
20130319;03:20;28;2,9
20130319;03:30;94;4,0
20130319;03:40;106;4,4
20130319;03:50;92;3,3
20130319;04:00;95;3,8
20130319;04:10;218;1,3
20130319;04:20;16;1,8
20130319;04:30;39;1,5
20130319;04:40;100;2,0
20130319;04:50;354;1,7
20130319;05:00;61;2,0
20130319;05:10;13;2,1
20130319;05:20;25;2,1
20130319;05:30;8;1,3
20130319;05:40;353;1,2
20130319;05:50;54;3,1
20130319;06:00;30;2,4
20130319;06:10;33;3,0
20130319;06:20;28;1,4
20130319;06:30;297;0,8
20130319;06:40;13;0,9
20130319;06:50;1;1,3
20130319;07:00;354;1,5
20130319;07:10;338;1,6
20130319;07:20;43;1,4
20130319;07:30;14;2,0
20130319;07:40;48;0,8
20130319;07:50;270;0,6
20130319;08:00;228;2,0
20130319;08:10;262;2,0
20130319;08:20;223;1,0
20130319;08:30;207;2,0
20130319;08:40;214;2,2
20130319;08:50;246;1,9
20130319;09:00;256;1,9
20130319;09:10;225;4,8
20130319;09:20;220;6,8
20130319;09:30;220;6,9
20130319;09:40;223;6,6
20130319;09:50;221;8,7
20130319;10:00;230;8,4
20130319;10:10;221;8,0
20130319;10:20;227;7,6
20130319;10:30;227;7,4
20130319;10:40;213;6,5
20130319;10:50;225;6,7
20130319;11:00;233;6,6
20130319;11:10;235;5,8
20130319;11:20;229;6,1
20130319;11:30;229;5,5
20130319;11:40;222;6,0
20130319;11:50;223;5,5
20130319;12:00;212;6,3
20130319;12:10;234;6,4
20130319;12:20;234;6,4
20130319;12:30;225;7,0
20130319;12:40;213;6,4
20130319;12:50;229;7,1
20130319;13:00;226;7,1
20130319;13:10;235;7,0
20130319;13:20;222;6,1
20130319;13:30;220;6,9
20130319;13:40;221;6,4
20130319;13:50;226;5,8
20130319;14:00;213;5,4
20130319;14:10;227;4,8
20130319;14:20;222;4,7
20130319;14:30;227;3,2
20130319;14:40;227;3,2
20130319;14:50;197;4,7
20130319;15:00;194;5,0
20130319;15:10;204;3,9
20130319;15:20;185;4,4
20130319;15:30;192;3,9
20130319;15:40;177;3,2
20130319;15:50;192;3,0
20130319;16:00;184;2,7
20130319;16:10;180;2,7
20130319;16:20;161;3,0
20130319;16:30;184;3,0
20130319;16:40;185;3,6
20130319;16:50;178;3,2
20130319;17:00;203;2,9
20130319;17:10;192;2,2
20130319;17:20;216;3,3
20130319;17:30;185;3,6
20130319;17:40;224;2,6
20130319;17:50;220;1,6
20130319;18:00;165;0,9
20130319;18:10;122;1,1
20130319;18:20;153;1,6
20130319;18:30;178;2,7
20130319;18:40;219;2,4
20130319;18:50;215;3,1
20130319;19:00;199;2,5
20130319;19:10;193;2,3
20130319;19:20;210;3,1
20130319;19:30;182;3,8
20130319;19:40;200;3,8
20130319;19:50;198;3,3
20130319;20:00;189;3,3
20130319;20:10;205;3,7
20130319;20:20;204;3,5
20130319;20:30;208;3,1
20130319;20:40;214;2,8
20130319;20:50;219;2,7
20130319;21:00;192;1,8
20130319;21:10;26;1,1
20130319;21:20;57;1,3
20130319;21:30;5;0,9
20130319;21:40;46;0,8
20130319;21:50;47;0,9
20130319;22:00;53;0,7
20130319;22:10;57;1,0
20130319;22:20;57;1,2
20130319;22:30;44;1,2
20130319;22:40;11;1,3
20130319;22:50;42;1,0
20130319;23:00;47;1,5
20130319;23:10;57;2,0
20130319;23:20;335;1,6
20130319;23:30;26;1,4
20130319;23:40;26;1,4
20130319;23:50;343;2,2
20130320;00:00;15;1,2
